Voltar ao catálogo

STARLINK-37654

AtivoComunicaçõesSSO
NORAD 69141·PAYLOAD·🇺🇸 United States

Lançado May 20, 2026 de Vandenberg Space Force Base

Loading…

Próximas Passagens (próximas 24 horas)

TLE

AtualizadoSource: CelesTrak SupGP

Época: Sep 15, 2026, 03:48 UTC

1 69141C 26110T   26258.15881944 -.00055453  00000+0 -17215-2 0  2583
2 69141  97.2849  93.3301 0001760  92.3884 137.5456 15.33465698    11

Acompanhe STARLINK-37654 em tempo real com AllMySat

Download on the App Store